Flag for Monaco Weather past 2 weeks in Monaco, Monaco

48 °F


Feels Like: 44 °F
Forecast: 35 / 60 °F
Wind: 10 mph from North

Location: Nice Airport

Current Time: Dec 1, 2015 at 12:29:30 AM

Latest Report: Nov 30, 2015 at 11:30 PM

Visibility: 10 mi

Pressure: 30.24 "Hg

Humidity: 66%

Dew point: 37 °F

Location of MonacoLocation

Historic Weather in Monaco — Graph


Monaco temperature yesterday

Maximum temperature yesterday: 63 °F (at 1:30 PM)
Minimum temperature yesterday: 46 °F (at 4:00 AM)
Average temperature yesterday: 52 °F

Past Weeks' High & Low Weather Summary

High68 °F (Nov 18, 12:30 PM)83% (Nov 16, 6:30 PM)30.33 "Hg (Nov 16, 6:30 PM)
Low41 °F (Nov 24, 7:00 AM)16% (Nov 21, 2:30 PM)29.18 "Hg (Nov 21, 1:00 PM)
Average53 °F56%29.93 "Hg
* Reported Nov 15 11:30 PM — Nov 30 11:00 PM, Monaco, Weather by CustomWeather, © 2015

Note: Actual official high and low records may vary slightly from our data, if they occured in-between our weather recording intervals... More about our weather records


Monaco weather history for previous 24 hours

Time TempWeatherWind HumidityBarometerVisibility
11:00 PM
Mon, Nov 30
48 °FClear.10 mph66%30.24 "Hg10 mi
10:30 PM48 °FClear.10 mph66%30.24 "Hg10 mi
9:30 PM48 °FClear.10 mph71%30.27 "Hg10 mi
9:00 PM48 °FClear.10 mph71%30.27 "Hg10 mi
8:30 PM50 °FClear.10 mph71%30.27 "Hg10 mi
8:00 PM50 °FClear.12 mph71%30.27 "Hg10 mi
7:30 PM50 °FClear.7 mph71%30.27 "Hg10 mi
7:00 PM50 °FPassing clouds.7 mph76%30.27 "HgN/A
6:30 PM52 °FClear.9 mph77%30.27 "Hg10 mi
6:00 PM54 °FClear.6 mph72%30.27 "Hg10 mi
5:34 PM55 °FClear.No wind67%30.27 "Hg10 mi
5:00 PM57 °FClear.1 mph63%30.27 "Hg10 mi
4:30 PM59 °FSunny.2 mph63%30.27 "Hg10 mi
4:00 PM59 °FSunny.2 mph63%30.27 "Hg10 mi
3:30 PM59 °FPassing clouds.2 mph63%30.27 "HgN/A
3:00 PM59 °FPassing clouds.3 mph59%30.27 "HgN/A
2:30 PM61 °FPassing clouds.2 mph55%30.27 "HgN/A
2:00 PM61 °FPassing clouds.2 mph55%30.27 "HgN/A
1:30 PM63 °FPassing clouds.2 mph52%30.27 "HgN/A
1:00 PM61 °FPassing clouds.2 mph52%30.30 "HgN/A
12:30 PM59 °FScattered clouds.6 mph39%30.30 "HgN/A
12:00 PM57 °FScattered clouds.9 mph39%30.30 "HgN/A
11:30 AM54 °FScattered clouds.9 mph44%30.33 "HgN/A
11:00 AM52 °FSunny.12 mph47%30.33 "Hg10 mi
10:30 AM50 °FSunny.13 mph47%30.33 "Hg10 mi
10:00 AM48 °FSunny.14 mph50%30.33 "Hg10 mi
9:30 AM48 °FPartly sunny.14 mph46%30.33 "HgN/A
9:00 AM46 °FPartly sunny.13 mph50%30.30 "HgN/A
8:00 AM46 °FPartly sunny.13 mph53%30.30 "HgN/A
7:30 AM46 °FPassing clouds.15 mph53%30.30 "HgN/A
7:00 AM46 °FPassing clouds.13 mph53%30.30 "HgN/A
6:30 AM46 °FClear.12 mph53%30.27 "Hg10 mi
6:00 AM46 °FClear.12 mph53%30.27 "Hg10 mi
5:30 AM46 °FClear.14 mph53%30.27 "Hg10 mi
4:30 AM46 °FPassing clouds.10 mph57%30.27 "HgN/A
4:00 AM46 °FPassing clouds.8 mph57%30.27 "HgN/A
3:30 AM48 °FClear.14 mph54%30.27 "Hg10 mi
3:00 AM48 °FClear.15 mph54%30.27 "Hg10 mi
2:30 AM48 °FClear.15 mph58%30.27 "Hg10 mi
1:30 AM48 °FClear.15 mph58%30.27 "Hg10 mi
1:00 AM48 °FClear.12 mph58%30.30 "Hg10 mi
12:30 AM48 °FClear.13 mph62%30.30 "Hg10 mi
12:00 AM48 °FClear.9 mph62%30.30 "Hg10 mi
Weather by CustomWeather, © 2015

See weather overviewHow to use our weather pages